Weerstation Grootegast  Weerstation Grootegast


15 daagse weersverwachting Forlì (IT)

  • Overzicht
  • Per uur
  • 15 dagen
  • Extra
  • Vergelijk
  • Kaarten
  • Dagkaart
  • Meer »
  • Info
  • Statistieken
  • Directe link
    Temp 6h Neerslag Wind  
 07:01     17:50    Daglengte: 10:49 Vandaag
13:00
57.4 mm
5
19:00
40.4 mm
4
 06:59     17:52    Daglengte: 10:53 Morgen
01:00
67.1 mm
4
07:00
114.8 mm
5
13:00
99.8 mm
4
19:00
119.9 mm
7
 06:57     17:53    Daglengte: 10:56 Zaterdag 24 Feb
01:00
136.4 mm
6
07:00
222.8 mm
5
13:00
160.0 mm
6
19:00
156.7 mm
4
 06:56     17:54    Daglengte: 10:58 Zondag 25 Feb
01:00
132.3 mm
4
Locatie info
Region: Emilia Romagna
Latitude: 44.2282°N
Longitude: 12.0421°E
27 masl
Postcode: 47122
Temp/Neerslag /Baro Onweer/DauwpuntSneeuw
    Temp Baro 1h Neerslag Dauwpunt Wind UV BewolkingSneeuw  
 07:01     17:50    Daglengte: 10:49 Vandaag
08:00
Voelt als: -2.2°
1004.6 hPa 11.0 mm
21%
0.6°
4
Windvlaag: -0.1 m/s
81%4 cm
09:00
Voelt als: -2.5°
1004.6 hPa 8.1 mm
21%
0.4°
4
Windvlaag: 0.4 m/s
81%5 cm
10:00
Voelt als: -2.6°
1004.6 hPa 8.6 mm
21%
0.7°
5
Windvlaag: 0.6 m/s
81%6 cm
11:00
Voelt als: -2.5°
1004.8 hPa 9.5 mm
21%
1.0°
5
Windvlaag: 1.1 m/s
81%7 cm
12:00
Voelt als: -2.0°
1004.6 hPa 10.1 mm
21%
1.5°
5
Windvlaag: 0.8 m/s
76%7 cm
13:00
Voelt als: -1.2°
1004.6 hPa 10.1 mm
21%
2.0°
5
Windvlaag: 0.2 m/s
78%7 cm
14:00
Voelt als: -0.7°
1004.8 hPa 10.0 mm
21%
2.2°
5
Windvlaag: -0.3 m/s
81%6 cm
15:00
Voelt als: 0.1°
1004.9 hPa 10.1 mm
21%
2.5°
4
Windvlaag: -1.3 m/s
79%6 cm
16:00
Voelt als: 1.1°
1005.0 hPa 10.1 mm
21%
2.7°
3
Windvlaag: -2.4 m/s
81%5 cm
17:00
Voelt als: 0.9°
1004.9 hPa
21%
2.5°
3
Windvlaag: -2.8 m/s
81%5 cm
18:00
Voelt als: 0.4°
1005.0 hPa
21%
2.2°
3
Windvlaag: -1.1 m/s
81%5 cm
19:00
Voelt als: -0.2°
1005.3 hPa 10.2 mm
21%
2.1°
4
Windvlaag: -1.2 m/s
81%5 cm
20:00
Voelt als: 0.0°
1005.2 hPa 11.6 mm
21%
2.9°
4
Windvlaag: -0.1 m/s
81%5 cm
21:00
Voelt als: -0.5°
1005.3 hPa 12.4 mm
21%
3.3°
6
Windvlaag: 0.8 m/s
81%5 cm
22:00
Voelt als: 0.2°
1005.0 hPa 12.8 mm
21%
3.6°
6
Windvlaag: 1.1 m/s
81%5 cm
23:00
Voelt als: 1.2°
1004.8 hPa 15.0 mm
21%
3.4°
6
Windvlaag: 0.7 m/s
81%5 cm
 06:59     17:52    Daglengte: 10:53 Morgen
00:00
Voelt als: 2.0°
1004.5 hPa 15.4 mm
21%
3.3°
4
Windvlaag: 1.9 m/s
81%4 cm
01:00
Voelt als: 1.8°
1004.2 hPa
21%
3.4°
4
Windvlaag: -0.2 m/s
81%4 cm
02:00
Voelt als: 2.3°
1003.9 hPa 30.7 mm
21%
4.4°
5
Windvlaag: -0.9 m/s
81%4 cm
03:00
Voelt als: 2.5°
1003.1 hPa 16.7 mm
21%
4.5°
5
Windvlaag: -0.6 m/s
74%4 cm
04:00
Voelt als: 2.8°
1002.6 hPa 16.9 mm
21%
4.2°
4
Windvlaag: -1.2 m/s
74%4 cm
05:00
Voelt als: 2.9°
1002.2 hPa 17.1 mm
21%
4.3°
3
Windvlaag: -2.3 m/s
75%4 cm
06:00
Voelt als: 1.8°
1002.0 hPa 16.8 mm
21%
4.2°
5
Windvlaag: -3.3 m/s
79%4 cm
07:00
Voelt als: 1.1°
1002.1 hPa 16.5 mm
21%
3.7°
5
Windvlaag: -2.9 m/s
58%3 cm
08:00
Voelt als: 1.2°
1002.7 hPa 16.4 mm
21%
4.0°
5
Windvlaag: -2.8 m/s
47%3 cm
09:00
Voelt als: 1.9°
1003.6 hPa 16.9 mm
21%
4.4°
5
Windvlaag: -2.5 m/s
32%3 cm
10:00
Voelt als: 2.5°
1004.2 hPa 16.8 mm
21%
4.7°
5
Windvlaag: -1.2 m/s
27%3 cm
11:00
Voelt als: 2.7°
1004.9 hPa 16.7 mm
21%
4.7°
5
Windvlaag: -1.4 m/s
73%2 cm
12:00
Voelt als: 3.0°
1005.3 hPa 16.6 mm
21%
4.7°
4
Windvlaag: -1.8 m/s
81%2 cm
13:00
Voelt als: 3.6°
1005.7 hPa 16.4 mm
21%
5.0°
4
Windvlaag: -1.6 m/s
77%2 cm
14:00
Voelt als: 3.3°
1006.0 hPa 16.8 mm
21%
4.9°
5
Windvlaag: -1.7 m/s
81%2 cm
15:00
Voelt als: 2.9°
1005.7 hPa 17.0 mm
21%
5.0°
5
Windvlaag: -1.9 m/s
81%2 cm
16:00
Voelt als: 3.0°
1005.7 hPa 19.4 mm
21%
5.1°
5
Windvlaag: -2.4 m/s
81%2 cm
17:00
Voelt als: 2.9°
1005.8 hPa 21.3 mm
21%
5.0°
6
Windvlaag: -2.1 m/s
81%1 cm
18:00
Voelt als: 3.0°
1006.1 hPa 22.4 mm
21%
5.3°
7
Windvlaag: -3 m/s
81%1 cm
19:00
Voelt als: 2.2°
1006.1 hPa 22.9 mm
21%
4.8°
7
Windvlaag: -3.7 m/s
81%1 cm
20:00
Voelt als: 1.9°
1006.2 hPa 24.8 mm
21%
4.5°
7
Windvlaag: -2.8 m/s
81%1 cm
21:00
Voelt als: 2.8°
1006.2 hPa 27.1 mm
21%
5.0°
6
Windvlaag: -2.3 m/s
81%1 cm
22:00
Voelt als: 2.1°
1006.3 hPa 27.9 mm
21%
4.9°
8
Windvlaag: 0.2 m/s
81%1 cm
23:00
Voelt als: 2.0°
1006.3 hPa 28.2 mm
21%
4.5°
8
Windvlaag: 0.3 m/s
79%1 cm
 06:57     17:53    Daglengte: 10:56 Zaterdag 24 Feb
00:00
Voelt als: 1.9°
1005.9 hPa 28.3 mm
21%
5.1°
7
Windvlaag: -0.1 m/s
32%1 cm
01:00
Voelt als: 2.5°
1005.9 hPa
21%
5.6°
6
Windvlaag: -0.5 m/s
69%1 cm
02:00
Voelt als: 4.0°
1006.1 hPa 84.7 mm
21%
6.0°
5
Windvlaag: -0.8 m/s
70%1 cm
03:00
Voelt als: 4.4°
1006.5 hPa 28.8 mm
21%
5.8°
6
Windvlaag: -2.3 m/s
60%1 cm
04:00
Voelt als: -0.2°
1007.6 hPa 28.7 mm
100%
3.0°
7
Windvlaag: -2.3 m/s
86%1 cm
05:00
Voelt als: -0.4°
1007.8 hPa 27.4 mm
100%
3.2°
6
Windvlaag: -1.4 m/s
84%1 cm
06:00
Voelt als: -0.2°
1008.3 hPa 26.7 mm
100%
3.3°
6
Windvlaag: -1.1 m/s
83%1 cm
07:00
Voelt als: 0.7°
1008.9 hPa 26.6 mm
100%
3.2°
5
Windvlaag: -0.3 m/s
87%1 cm
08:00
Voelt als: 0.7°
1009.7 hPa 27.2 mm
100%
2.8°
6
Windvlaag: -0.1 m/s
90%1 cm
09:00
Voelt als: 0.9°
1010.1 hPa 26.3 mm
100%
2.1°
6
Windvlaag: 0.3 m/s
82%1 cm
10:00
Voelt als: 1.2°
1010.5 hPa 26.3 mm
100%
1.6°
6
Windvlaag: 0.3 m/s
83%1 cm
11:00
Voelt als: 1.3°
1010.9 hPa 26.8 mm
100%
1.3°
6
Windvlaag: 0.2 m/s
84%1 cm
12:00
Voelt als: 1.6°
1011.0 hPa 26.5 mm
100%
1.1°
6
Windvlaag: -0.6 m/s
84%1 cm
13:00
Voelt als: 1.8°
1010.8 hPa 26.8 mm
100%
1.2°
6
Windvlaag: -1.2 m/s
85%1 cm
14:00
Voelt als: 3.0°
1010.8 hPa 26.6 mm
100%
1.8°
5
Windvlaag: -3.9 m/s
85%
15:00
Voelt als: 2.6°
1010.7 hPa 26.3 mm
100%
1.6°
5
Windvlaag: -3.9 m/s
86%
16:00
Voelt als: 2.1°
1010.8 hPa 26.1 mm
100%
1.3°
5
Windvlaag: -3.4 m/s
89%
17:00
Voelt als: 1.4°
1010.8 hPa 25.9 mm
100%
1.3°
5
Windvlaag: -0.8 m/s
91%
18:00
Voelt als: 1.3°
1011.1 hPa 25.9 mm
100%
1.5°
4
Windvlaag: -0.9 m/s
90%
19:00
Voelt als: 1.0°
1011.5 hPa 25.9 mm
100%
1.6°
4
Windvlaag: -0.8 m/s
88%
20:00
Voelt als: 0.7°
1011.8 hPa 26.3 mm
100%
1.6°
4
Windvlaag: -0.7 m/s
90%
21:00
Voelt als: 0.4°
1012.3 hPa 26.4 mm
100%
1.4°
4
Windvlaag: -0.6 m/s
92%
22:00
Voelt als: 0.3°
1012.6 hPa 26.6 mm
100%
1.5°
5
Windvlaag: -0.4 m/s
93%
23:00
Voelt als: 0.2°
1012.7 hPa 26.6 mm
100%
1.3°
5
Windvlaag: -0.5 m/s
97%
 06:56     17:54    Daglengte: 10:58 Zondag 25 Feb
00:00
Voelt als: 0.1°
1012.8 hPa 26.4 mm
100%
1.0°
4
Windvlaag: -0.7 m/s
100%
01:00
Voelt als: 0.1°
1012.8 hPa
100%
1.0°
4
Windvlaag: -0.4 m/s
100%
02:00
Voelt als: 2.3°
1013.6 hPa 77.8 mm
100%
2.8°
6
Windvlaag: 8 m/s
100%
03:00
Voelt als: 2.0°
1013.4 hPa 77.8 mm
100%
2.3°
6
Windvlaag: 6.8 m/s
100%
04:00
Voelt als: 1.6°
1013.1 hPa 77.8 mm
100%
1.6°
6
Windvlaag: 6.7 m/s
100%
05:00
Voelt als: 1.2°
1013.0 hPa 77.9 mm
100%
1.3°
6
Windvlaag: 6.5 m/s
100%
06:00
Voelt als: 0.6°
1013.1 hPa 77.9 mm
100%
0.7°
6
Windvlaag: 7 m/s
96%
07:00
Voelt als: -0.1°
1013.3 hPa 77.9 mm
100%
0.1°
6
Windvlaag: 8.3 m/s
97%
Temp/Neerslag /Baro Onweer/DauwpuntSneeuw
    Temp Baro Neerslag Dauwpunt Wind BewolkingSneeuw  
 07:01     17:50    Daglengte: 10:49 Vandaag
10:00
Voelt als: -2.6°
1004.6 hPa 27.7 mm 0.7°
5
81%6 cm
13:00
Voelt als: -1.2°
1004.6 hPa 29.7 mm 2.0°
5
78%7 cm
16:00
Voelt als: 1.1°
1005.0 hPa 30.2 mm 2.7°
3
81%5 cm
19:00
Voelt als: -0.2°
1005.3 hPa 10.2 mm 2.1°
4
81%5 cm
22:00
Voelt als: 0.2°
1005.0 hPa 36.8 mm 3.6°
6
81%5 cm
 06:59     17:52    Daglengte: 10:53 Morgen
01:00
Voelt als: 1.8°
1004.2 hPa 30.4 mm 3.4°
4
81%4 cm
04:00
Voelt als: 2.8°
1002.6 hPa 64.4 mm 4.2°
4
74%4 cm
07:00
Voelt als: 1.1°
1002.1 hPa 50.4 mm 3.7°
5
58%3 cm
10:00
Voelt als: 2.5°
1004.2 hPa 50.1 mm 4.7°
5
27%3 cm
13:00
Voelt als: 3.6°
1005.7 hPa 49.7 mm 5.0°
4
77%2 cm
16:00
Voelt als: 3.0°
1005.7 hPa 53.2 mm 5.1°
5
81%2 cm
19:00
Voelt als: 2.2°
1006.1 hPa 66.6 mm 4.8°
7
81%1 cm
22:00
Voelt als: 2.1°
1006.3 hPa 79.9 mm 4.9°
8
81%1 cm
 06:57     17:53    Daglengte: 10:56 Zaterdag 24 Feb
01:00
Voelt als: 2.5°
1005.9 hPa 56.6 mm 5.6°
6
69%1 cm
04:00
Voelt als: -0.2°
1007.6 hPa 142.1 mm 3.0°
7
86%1 cm
07:00
Voelt als: 0.7°
1008.9 hPa 80.7 mm 3.2°
5
87%1 cm
10:00
Voelt als: 1.2°
1010.5 hPa 79.9 mm 1.6°
6
83%1 cm
13:00
Voelt als: 1.8°
1010.8 hPa 80.1 mm 1.2°
6
85%1 cm
16:00
Voelt als: 2.1°
1010.8 hPa 78.9 mm 1.3°
5
89%
19:00
Voelt als: 1.0°
1011.5 hPa 77.7 mm 1.6°
4
88%
22:00
Voelt als: 0.3°
1012.6 hPa 79.3 mm 1.5°
5
93%
 06:56     17:54    Daglengte: 10:58 Zondag 25 Feb
01:00
Voelt als: 0.1°
1012.8 hPa 52.9 mm 1.0°
4
100%
04:00
Voelt als: 1.6°
1013.1 hPa 233.4 mm 1.6°
6
100%
07:00
Voelt als: -0.1°
1013.3 hPa 233.7 mm 0.1°
6
97%
10:00
Voelt als: -0.1°
1011.1 hPa 0.4 mm 2.1°
6
1%
13:00
Voelt als: -1.3°
1011.2 hPa 2.3 mm 1.2°
6
1%
16:00
Voelt als: -2.2°
1010.6 hPa 0.8 mm 0.7°
6
1%
19:00
Voelt als: -2.4°
1011.0 hPa 1.7 mm 0.2°
5
1%
22:00
Voelt als: -3.9°
1011.4 hPa 1.0 mm -0.6°
6
1% warningclass
 06:54     17:56    Daglengte: 11:02 Maandag 26 Feb
01:00
Voelt als: -4.0°
1010.1 hPa 2.6 mm -1.0°
5
1% warningclass
04:00
Voelt als: -4.3°
1008.3 hPa 1.3 mm -1.0°
4
1% warningclass
07:00
Voelt als: -4.3°
1007.1 hPa 2.7 mm -1.0°
4
1% warningclass
10:00
Voelt als: -4.2°
1006.3 hPa 1.5 mm -0.5°
5
1% warningclass
13:00
Voelt als: -4.1°
1005.2 hPa 3.4 mm -0.1°
5
1% warningclass
16:00
Voelt als: -3.2°
1004.4 hPa 0.9 mm -0.4°
4
1% warningclass
19:00
-0°
Voelt als: -3.8°
1005.4 hPa 1.5 mm -1.5°
3
1% warningclass
22:00
-2°
Voelt als: -6.3°
1006.0 hPa 0.2 mm -2.7°
4
1% warningclass
 06:52     17:57    Daglengte: 11:05 Dinsdag 27 Feb
01:00
-1°
Voelt als: -5.4°
1006.5 hPa 0.8 mm -2.1°
4
1% warningclass
04:00
-1°
Voelt als: -4.6°
1006.2 hPa 0.9 mm -2.1°
3
1% warningclass
07:00
-2°
Voelt als: -5.4°
1006.8 hPa 1.2 mm -2.8°
3
1% warningclass
10:00
-1°
Voelt als: -4.2°
1008.2 hPa   -1.9°
3
1%
13:00
Voelt als: -1.0°
1008.8 hPa 0.1 mm -0.5°
2
1%
16:00
Voelt als: 0.2°
1009.1 hPa 0.1 mm -0.9°
2
0%
19:00
-1°
Voelt als: -1.5°
1010.5 hPa 0.1 mm -4.4°
1
0%
22:00
-2°
Voelt als: -4.9°
1012.2 hPa   -4.5°
2
0%
 06:51     17:58    Daglengte: 11:07 Woensdag 28 Feb
01:00
-3°
Voelt als: -6.3°
1013.2 hPa   -4.8°
3
0%
04:00
-3°
Voelt als: -7.0°
1013.6 hPa   -5.3°
3
0%
07:00
-3°
Voelt als: -7.9°
1014.8 hPa   -5.8°
3
0%
10:00
Voelt als: -1.9°
1016.9 hPa   -2.3°
2
0%
13:00
Voelt als: 2.4°
1017.2 hPa   0.2°
1
0%
16:00
Voelt als: 2.2°
1017.5 hPa 0.1 mm -0.1°
2
1%
19:00
Voelt als: -0.3°
1018.9 hPa 0.2 mm -1.7°
2
1%
22:00
Voelt als: -1.3°
1020.0 hPa   -2.0°
2
0%
 06:49     18:00    Daglengte: 11:11 Donderdag 01 Maa
01:00
Voelt als: -1.1°
1020.0 hPa   -1.8°
2
0%
04:00
Voelt als: -0.0°
1018.9 hPa   -1.5°
1
1%
07:00
Voelt als: 0.6°
1018.6 hPa 0.3 mm -0.4°
1
1%
13:00
Voelt als: 4.8°
1017.4 hPa 0.5 mm 3.5°
1
1%
19:00
Voelt als: 4.7°
1014.9 hPa 3.6 mm 4.1°
0
1%
 06:47     18:01    Daglengte: 11:14 Vrijdag 02 Maa
01:00
Voelt als: 5.2°
1012.8 hPa 9.5 mm 4.9°
1
1%
07:00
Voelt als: 3.9°
1010.9 hPa 6.5 mm 5.9°
4
1%
13:00
Voelt als: 3.1°
1012.4 hPa 4.6 mm 5.2°
4
1%
19:00
Voelt als: 1.3°
1012.6 hPa 2.6 mm 3.0°
3
1%
 06:46     18:02    Daglengte: 11:16 Zaterdag 03 Maa
01:00
Voelt als: 0.5°
1012.5 hPa 1.1 mm 2.4°
3
1%
07:00
Voelt als: 1.9°
1011.2 hPa 0.3 mm 2.7°
2
1%
13:00
Voelt als: 8.3°
1010.0 hPa   4.9°
2
1%
19:00
Voelt als: 6.2°
1009.2 hPa   4.4°
0
1%
 06:44     18:04    Daglengte: 11:20 Zondag 04 Maa
01:00
Voelt als: 5.3°
1009.9 hPa 0.1 mm 4.6°
1
1%
07:00
1007.7 hPa 1.6 mm 2.6°
1
0%
13:00
Voelt als: 8.0°
1007.8 hPa 1.3 mm 6.5°
1
0%
19:00
1006.9 hPa 0.7 mm 4.4°
0
0%
 06:42     18:05    Daglengte: 11:23 Maandag 05 Maa
01:00
Voelt als: 4.0°
1007.5 hPa 1.7 mm 3.3°
1
0%
07:00
Voelt als: 3.5°
1007.4 hPa 1.7 mm 3.0°
1
0%
13:00
Voelt als: 8.0°
1008.5 hPa 1.8 mm 6.4°
1
0%
19:00
Voelt als: 4.9°
1008.1 hPa 1.4 mm 4.0°
0
0%
 06:40     18:06    Daglengte: 11:26 Dinsdag 06 Maa
01:00
1008.4 hPa 1.6 mm 3.1°
1
0%
07:00
1007.3 hPa 1.8 mm 3.1°
0
0%
13:00
Voelt als: 9.0°
1007.1 hPa 2.0 mm 7.3°
0
0%
19:00
1006.5 hPa 1.2 mm 5.9°
0
0%
 06:38     18:07    Daglengte: 11:29 Woensdag 07 Maa
01:00
Voelt als: 5.9°
1007.6 hPa 0.8 mm 5.2°
1
0%
07:00
1008.2 hPa 0.6 mm 4.6°
0
0%
13:00
10°
1009.8 hPa 1.1 mm 8.1°
0
0%
19:00
Voelt als: 7.5°
1009.9 hPa 1.3 mm 6.1°
1
0%
 06:37     18:09    Daglengte: 11:32 Donderdag 08 Maa
01:00
Voelt als: 6.8°
1010.9 hPa 0.7 mm 5.5°
1
0%
07:00
Voelt als: 6.4°
1010.9 hPa 0.5 mm 5.2°
1
0%
13:00
12°
1011.3 hPa 0.6 mm 8.7°
1
0%
19:00
Voelt als: 8.9°
1010.5 hPa 0.6 mm 7.5°
1
0%
 06:35     18:10    Daglengte: 11:35 Vrijdag 09 Maa
01:00
Voelt als: 7.7°
1010.6 hPa 0.4 mm 6.4°
1
0%
07:00
1009.5 hPa 0.6 mm 5.8°
1
0%
  CAPE Lifted Index Hail Supercell Tornado SRH 3km CL BTM PRES CL TOP PRES Swiss DWD icon SMHI TS
 07:01     17:50    Daglengte: 10:49 Vandaag
08:00 2 J/kg 7.6 K 0 % 0 % 0 % 0 m²/s² 0 0 8.08
09:00 0 J/kg 5.7 K 0 % 0 % 0 % 0 m²/s² 0 0 6.12
10:00 0 J/kg 3.9 K 0 % 0 % 0 % 0 m²/s² 0 0 4.38
11:00 0 J/kg 2.0 K 0 % 0 % 0 % 0 m²/s² 0 0 2.81
12:00 0 J/kg 0.9 K 0 % 0 % 0 % 0 m²/s² 0 0 2.04
13:00 0 J/kg 1.3 K 0 % 0 % 0 % 0 m²/s² 0 0 2.74
14:00 0 J/kg 3.3 K 0 % 0 % 0 % 0 m²/s² 0 0 5.76
15:00 0 J/kg 4.2 K 0 % 0 % 0 % 0 m²/s² 0 0 7.71
16:00 0 J/kg 3.7 K 0 % 0 % 0 % 0 m²/s² 0 0 6.16
17:00 0 J/kg 4.6 K 0 % 0 % 0 % 0 m²/s² 0 0 5.74
18:00 0 J/kg 4.8 K 0 % 0 % 0 % 0 m²/s² 0 0 5.22
19:00 0 J/kg 3.7 K 0 % 0 % 0 % 0 m²/s² 0 0 4.09
20:00 1 J/kg 3.8 K 0 % 0 % 0 % 0 m²/s² 0 0 4.19
21:00 1 J/kg 3.8 K 0 % 0 % 0 % 0 m²/s² 0 0 4.13
22:00 1 J/kg 2.9 K 0 % 0 % 0 % 0 m²/s² 0 0 3.56
23:00 3 J/kg 3.3 K 0 % 0 % 0 % 0 m²/s² 0 0 3.54
 06:59     17:52    Daglengte: 10:53 Morgen
00:00 6 J/kg 3.5 K 0 % 0 % 0 % 0 m²/s² 0 0 4.7
01:00 1 J/kg 2.2 K 0 % 0 % 0 % 0 m²/s² 0 0 2.68
02:00 2 J/kg 1.7 K 0 % 0 % 0 % 0 m²/s² 0 0 2.09
03:00 4 J/kg 1.8 K 0 % 0 % 0 % 0 m²/s² 0 0 2.4
04:00 1 J/kg 2.0 K 0 % 0 % 0 % 0 m²/s² 0 0 2.87
05:00 0 J/kg 1.8 K 0 % 0 % 0 % 0 m²/s² 0 0 2.91
06:00 1 J/kg 1.4 K 0 % 0 % 0 % 0 m²/s² 0 0 2.27
07:00 2 J/kg 1.7 K 0 % 0 % 0 % 0 m²/s² 0 0 2.81
08:00 0 J/kg 2.5 K 0 % 0 % 0 % 0 m²/s² 0 0 3.94
09:00 0 J/kg 3.1 K 0 % 0 % 0 % 0 m²/s² 0 0 6.28
10:00 0 J/kg 3.9 K 0 % 0 % 0 % 0 m²/s² 0 0 8.28
11:00 0 J/kg 4.1 K 0 % 0 % 0 % 0 m²/s² 0 0 7.49
12:00 0 J/kg 4.5 K 0 % 0 % 0 % 0 m²/s² 0 0 6.42
13:00 0 J/kg 4.8 K 0 % 0 % 0 % 0 m²/s² 0 0 5.49
14:00 0 J/kg 4.4 K 0 % 0 % 0 % 0 m²/s² 0 0 4.76
15:00 0 J/kg 3.5 K 0 % 0 % 0 % 0 m²/s² 0 0 3.83
16:00 1 J/kg 3.9 K 0 % 0 % 0 % 0 m²/s² 0 0 4.14
17:00 4 J/kg 4.9 K 0 % 0 % 0 % 0 m²/s² 0 0 5.32
18:00 24 J/kg 5.1 K 0 % 0 % 0 % 0 m²/s² 0 0 5.34
19:00 2 J/kg 5.0 K 0 % 0 % 0 % 0 m²/s² 0 0 5.33
20:00 2 J/kg 2.8 K 0 % 0 % 0 % 0 m²/s² 0 0 3.01
21:00 0 J/kg 1.4 K 0 % 0 % 0 % 0 m²/s² 0 0 1.61
22:00 0 J/kg 1.3 K 0 % 0 % 0 % 0 m²/s² 0 0 1.87
23:00 0 J/kg 1.8 K 0 % 0 % 0 % 0 m²/s² 0 0 2.7
 06:57     17:53    Daglengte: 10:56 Zaterdag 24 Feb
00:00 0 J/kg 1.9 K 0 % 0 % 0 % 0 m²/s² 0 0 3.04
01:00 0 J/kg 1.9 K 0 % 0 % 0 % 0 m²/s² 0 0 3.19
02:00 0 J/kg 1.7 K 0 % 0 % 0 % 0 m²/s² 0 0 3.2
03:00 0 J/kg 1.5 K 0 % 0 % 0 % 0 m²/s² 0 0 2.31
04:00 0 J/kg 1.5 K 0 % 0 % 0 % 0 m²/s² 0 0 1.98
05:00 0 J/kg 2.0 K 0 % 0 % 0 % 0 m²/s² 0 0 2.75
06:00 0 J/kg 2.4 K 0 % 0 % 0 % 0 m²/s² 0 0 3.69
07:00 0 J/kg 2.6 K 0 % 0 % 0 % 0 m²/s² 0 0 4.82
08:00 0 J/kg 3.0 K 0 % 0 % 0 % 0 m²/s² 0 0 5.28
09:00 4 J/kg 3.0 K 0 % 0 % 0 % 0 m²/s² 0 0 5.79
10:00 6 J/kg 3.4 K 0 % 0 % 0 % 0 m²/s² 0 0 6.34
11:00 7 J/kg 3.5 K 0 % 0 % 0 % 0 m²/s² 0 0 5.78
12:00 7 J/kg 3.5 K 0 % 0 % 0 % 0 m²/s² 0 0 5.57
13:00 7 J/kg 3.4 K 0 % 0 % 0 % 0 m²/s² 0 0 5.47
14:00 7 J/kg 3.2 K 0 % 0 % 0 % 0 m²/s² 0 0 5.27
15:00 10 J/kg 3.8 K 0 % 0 % 0 % 0 m²/s² 0 0 5.99
16:00 11 J/kg 4.2 K 0 % 0 % 0 % 0 m²/s² 0 0 6.75
17:00 9 J/kg 4.8 K 0 % 0 % 0 % 0 m²/s² 0 0 7.65
18:00 3 J/kg 5.1 K 0 % 0 % 0 % 0 m²/s² 0 0 8.13
19:00 1 J/kg 5.7 K 0 % 0 % 0 % 0 m²/s² 0 0 8.88
20:00 1 J/kg 5.9 K 0 % 0 % 0 % 0 m²/s² 0 0 8.99
21:00 0 J/kg 6.0 K 0 % 0 % 0 % 0 m²/s² 0 0 8.85
22:00 0 J/kg 6.1 K 0 % 0 % 0 % 0 m²/s² 0 0 8.71
23:00 0 J/kg 6.3 K 0 % 0 % 0 % 0 m²/s² 0 0 8.76
 06:56     17:54    Daglengte: 10:58 Zondag 25 Feb
00:00 0 J/kg 6.7 K 0 % 0 % 0 % 0 m²/s² 0 0 8.83
01:00 0 J/kg 7.2 K 0 % 0 % 0 % 0 m²/s² 0 0 9
02:00 0 J/kg 7.7 K 0 % 0 % 0 % 0 m²/s² 0 0 9.17
03:00 0 J/kg 8.4 K 0 % 0 % 0 % 0 m²/s² 0 0 9.66
04:00 2 J/kg 8.7 K 0 % 0 % 0 % 0 m²/s² 0 0 9.81
05:00 3 J/kg 9.1 K 0 % 0 % 0 % 0 m²/s² 0 0 10.15
06:00 1 J/kg 9.7 K 0 % 0 % 0 % 0 m²/s² 0 0 10.72
07:00 2 J/kg 10.4 K 0 % 0 % 0 % 0 m²/s² 0 0 11.42
Temp Baro Wind Neerslag
  EWN Forecast EWN WRFDA DWD ICON FMI HIRLAM MET Norway GFS
 07:01     17:50    Daglengte: 10:49 Vandaag
10:00 1.8° 1004.6 hPa 5.0 m/s 27.7 mm 1.5° 1001.0 hPa 7.1 m/s 69.0 mm 4.3° 1004.6 hPa 5.2 m/s 0.0 mm 5.8° 1004.5 hPa 4.8 m/s
13:00 3.1° 1004.6 hPa 5.3 m/s 29.7 mm 2.9° 999.4 hPa 9.5 m/s 87.1 mm 4.6° 1004.8 hPa 5.0 m/s 0.0 mm 7.3° 1005.3 hPa 4.2 m/s
16:00 4.0° 1005.0 hPa 3.2 m/s 30.2 mm 4.0° 1001.8 hPa 2.8 m/s 89.4 mm 4.5° 1004.8 hPa 4.9 m/s 0.0 mm 7.6° 1005.3 hPa 5.4 m/s
19:00 3.1° 1005.3 hPa 3.6 m/s 10.2 mm 2.9° 1002.5 hPa 2.8 m/s 90.0 mm 4.4° 1005.1 hPa 5.0 m/s 0.0 mm 7.1° 1005.2 hPa 4.6 m/s
22:00 4.4° 1005.0 hPa 5.7 m/s 36.8 mm 5.5° 1001.2 hPa 9.0 m/s 102.9 mm 4.6° 1005.1 hPa 3.2 m/s 0.0 mm 6.8° 1005.3 hPa 7.7 m/s
 06:59     17:52    Daglengte: 10:53 Morgen
01:00 5.1° 1004.2 hPa 4.3 m/s 30.4 mm 5.1° 1000.4 hPa 4.1 m/s 124.7 mm 6.1° 1004.2 hPa 6.7 m/s 0.0 mm 6.5° 1004.5 hPa 8.5 m/s
04:00 5.7° 1002.6 hPa 3.9 m/s 64.4 mm 5.8° 999.5 hPa 3.4 m/s 135.5 mm 6.4° 1002.2 hPa 4.4 m/s 0.0 mm 6.2° 1003.1 hPa 6.4 m/s
07:00 4.7° 1002.1 hPa 4.9 m/s 50.4 mm 4.0° 1000.4 hPa 4.9 m/s 139.3 mm 7.3° 1001.3 hPa 3.9 m/s 0.0 mm 6.8° 1003.3 hPa 1.8 m/s
10:00 5.8° 1004.2 hPa 4.7 m/s 50.1 mm 6.3° 1003.2 hPa 4.0 m/s 140.2 mm 7.4° 1003.6 hPa 3.3 m/s 0.0 mm 7.6° 1005.2 hPa 1.2 m/s
13:00 6.6° 1005.7 hPa 4.5 m/s 49.7 mm 7.8° 1003.9 hPa 3.9 m/s 140.2 mm 7.5° 1005.6 hPa 2.5 m/s 0.0 mm 8.9° 1006.4 hPa 4.5 m/s
16:00 6.2° 1005.7 hPa 4.6 m/s 53.2 mm 6.5° 1004.2 hPa 3.5 m/s 145.0 mm 8.9° 1005.8 hPa 3.1 m/s 0.0 mm 8.0° 1005.7 hPa 6.5 m/s
19:00 6.4° 1006.1 hPa 7.2 m/s 66.6 mm 7.3° 1004.2 hPa 7.2 m/s 178.0 mm 8.1° 1006.7 hPa 5.2 m/s 0.0 mm 7.6° 1005.5 hPa 7.5 m/s
22:00 6.4° 1006.3 hPa 7.8 m/s 79.9 mm 9.2° 1003.8 hPa 8.9 m/s 219.3 mm 7.0° 1006.7 hPa 5.0 m/s 0.0 mm 9.2° 1005.8 hPa 7.2 m/s
 06:57     17:53    Daglengte: 10:56 Zaterdag 24 Feb
01:00 6.3° 1005.9 hPa 6.1 m/s 56.6 mm 9.1° 1005.7 hPa 6.2 m/s 231.5 mm 6.4° 1005.6 hPa 5.8 m/s 0.0 mm 9.9° 1005.5 hPa 8.7 m/s
04:00 4.3° 1007.6 hPa 6.6 m/s 142.1 mm 8.1° 1006.7 hPa 5.5 m/s 231.7 mm 9.5° 1005.7 hPa 6.2 m/s
07:00 4.6° 1008.9 hPa 5.3 m/s 80.7 mm 7.8° 1008.0 hPa 3.8 m/s 231.7 mm 9.2° 1006.4 hPa 5.5 m/s
10:00 5.3° 1010.5 hPa 6.2 m/s 79.9 mm 10.8° 1009.9 hPa 8.6 m/s 231.8 mm 11.0° 1008.0 hPa 6.5 m/s
13:00 5.7° 1010.8 hPa 5.9 m/s 80.1 mm 11.1° 1010.9 hPa 8.1 m/s 231.8 mm 12.3° 1008.3 hPa 7.2 m/s
16:00 5.5° 1010.8 hPa 4.8 m/s 78.9 mm 10.4° 1010.8 hPa 6.4 m/s 231.8 mm 11.4° 1008.1 hPa 5.6 m/s
19:00 4.4° 1011.5 hPa 4.3 m/s 77.7 mm 8.2° 1011.5 hPa 5.5 m/s 232.0 mm 9.6° 1009.1 hPa 4.6 m/s
22:00 4.0° 1012.6 hPa 4.5 m/s 79.3 mm 7.1° 1013.1 hPa 5.4 m/s 232.3 mm 8.5° 1010.1 hPa 5.3 m/s
 06:56     17:54    Daglengte: 10:58 Zondag 25 Feb
01:00 3.8° 1012.8 hPa 4.5 m/s 52.9 mm 6.5° 1013.6 hPa 6.3 m/s 232.8 mm 7.4° 1010.2 hPa 4.9 m/s
04:00 5.5° 1013.1 hPa 5.8 m/s 233.4 mm 5.5° 1013.1 hPa 5.8 m/s 233.4 mm 6.5° 1009.4 hPa 5.5 m/s
07:00 4.3° 1013.3 hPa 6.1 m/s 233.7 mm 4.3° 1013.3 hPa 6.1 m/s 233.7 mm 5.0° 1010.0 hPa 6.0 m/s
10:00 4.3° 1011.1 hPa 6.1 m/s 0.4 mm 4.3° 1011.1 hPa 6.1 m/s 0.4 mm
13:00 3.4° 1011.2 hPa 6.3 m/s 2.3 mm 3.4° 1011.2 hPa 6.3 m/s 2.3 mm
16:00 2.5° 1010.6 hPa 5.8 m/s 0.8 mm 2.5° 1010.6 hPa 5.8 m/s 0.8 mm
19:00 1.8° 1011.0 hPa 4.6 m/s 1.7 mm 1.8° 1011.0 hPa 4.6 m/s 1.7 mm
22:00 1.1° 1011.4 hPa 5.5 m/s 1.0 mm 1.1° 1011.4 hPa 5.5 m/s 1.0 mm
 06:54     17:56    Daglengte: 11:02 Maandag 26 Feb
01:00 0.5° 1010.1 hPa 4.5 m/s 2.6 mm 0.5° 1010.1 hPa 4.5 m/s 2.6 mm
04:00 0.2° 1008.3 hPa 4.4 m/s 1.3 mm 0.2° 1008.3 hPa 4.4 m/s 1.3 mm
07:00 0.2° 1007.1 hPa 4.4 m/s 2.7 mm 0.2° 1007.1 hPa 4.4 m/s 2.7 mm
10:00 0.7° 1006.3 hPa 5.3 m/s 1.5 mm 0.7° 1006.3 hPa 5.3 m/s 1.5 mm
13:00 0.7° 1005.2 hPa 5.1 m/s 3.4 mm 0.7° 1005.2 hPa 5.1 m/s 3.4 mm
16:00 0.7° 1004.4 hPa 3.7 m/s 0.9 mm 0.7° 1004.4 hPa 3.7 m/s 0.9 mm
19:00 -0.2° 1005.4 hPa 3.1 m/s 1.5 mm -0.2° 1005.4 hPa 3.1 m/s 1.5 mm
22:00 -1.6° 1006.0 hPa 4.1 m/s 0.2 mm -1.6° 1006.0 hPa 4.1 m/s 0.2 mm
 06:52     17:57    Daglengte: 11:05 Dinsdag 27 Feb
01:00 -1.1° 1006.5 hPa 3.7 m/s 0.8 mm -1.1° 1006.5 hPa 3.7 m/s 0.8 mm
04:00 -0.9° 1006.2 hPa 3.0 m/s 0.9 mm -0.9° 1006.2 hPa 3.0 m/s 0.9 mm
07:00 -1.6° 1006.8 hPa 2.9 m/s 1.2 mm -1.6° 1006.8 hPa 2.9 m/s 1.2 mm
10:00 -0.6° 1008.2 hPa 3.0 m/s 0.0 mm -0.6° 1008.2 hPa 3.0 m/s 0.1 mm
13:00 1.3° 1008.8 hPa 2.0 m/s 0.1 mm 1.3° 1008.8 hPa 2.0 m/s 0.1 mm
16:00 2.2° 1009.1 hPa 2.0 m/s 0.1 mm 2.2° 1009.1 hPa 2.0 m/s 0.1 mm
19:00 -0.9° 1010.5 hPa 0.9 m/s 0.1 mm -0.9° 1010.5 hPa 0.9 m/s 0.1 mm
22:00 -1.7° 1012.2 hPa 2.4 m/s 0.0 mm -1.7° 1012.2 hPa 2.4 m/s 0.0 mm
 06:51     17:58    Daglengte: 11:07 Woensdag 28 Feb
01:00 -2.6° 1013.2 hPa 2.7 m/s 0.0 mm -2.6° 1013.2 hPa 2.7 m/s 0.0 mm
04:00 -3.1° 1013.6 hPa 2.8 m/s 0.0 mm -3.1° 1013.6 hPa 2.8 m/s 0.0 mm
07:00 -3.5° 1014.8 hPa 3.3 m/s 0.0 mm -3.5° 1014.8 hPa 3.3 m/s 0.0 mm
10:00 0.7° 1016.9 hPa 2.3 m/s 0.0 mm 0.7° 1016.9 hPa 2.3 m/s 0.0 mm
13:00 3.5° 1017.2 hPa 1.4 m/s 0.0 mm 3.5° 1017.2 hPa 1.4 m/s 0.0 mm
16:00 4.1° 1017.5 hPa 2.1 m/s 0.1 mm 4.1° 1017.5 hPa 2.1 m/s 0.1 mm
19:00 1.4° 1018.9 hPa 1.6 m/s 0.2 mm 1.4° 1018.9 hPa 1.6 m/s 0.2 mm
22:00 0.7° 1020.0 hPa 1.7 m/s 0.0 mm 0.7° 1020.0 hPa 1.7 m/s 0.0 mm
 06:49     18:00    Daglengte: 11:11 Donderdag 01 Maa
01:00 0.7° 1020.0 hPa 1.6 m/s 0.0 mm 0.7° 1020.0 hPa 1.6 m/s 0.0 mm
04:00 1.0° 1018.9 hPa 1.2 m/s 0.0 mm 1.0° 1018.9 hPa 1.2 m/s 0.1 mm
07:00 1.5° 1018.6 hPa 1.1 m/s 0.3 mm 1.5° 1018.6 hPa 1.1 m/s 0.3 mm
13:00 4.9° 1017.4 hPa 0.9 m/s 0.3 mm 4.9° 1017.4 hPa 0.9 m/s 0.3 mm
19:00 4.7° 1014.9 hPa 0.5 m/s 2.9 mm 4.7° 1014.9 hPa 0.5 m/s 2.9 mm
 06:47     18:01    Daglengte: 11:14 Vrijdag 02 Maa
01:00 5.3° 1012.8 hPa 0.9 m/s 6.6 mm 5.3° 1012.8 hPa 0.9 m/s 6.6 mm
07:00 6.5° 1010.9 hPa 3.7 m/s 4.3 mm 6.5° 1010.9 hPa 3.7 m/s 4.3 mm
13:00 5.8° 1012.4 hPa 3.5 m/s 2.8 mm 5.8° 1012.4 hPa 3.5 m/s 2.8 mm
19:00 3.9° 1012.6 hPa 2.9 m/s 1.6 mm 3.9° 1012.6 hPa 2.9 m/s 1.6 mm
 06:46     18:02    Daglengte: 11:16 Zaterdag 03 Maa
01:00 3.3° 1012.5 hPa 2.9 m/s 0.7 mm 3.3° 1012.5 hPa 2.9 m/s 0.7 mm
07:00 3.6° 1011.2 hPa 1.8 m/s 0.2 mm 3.6° 1011.2 hPa 1.8 m/s 0.2 mm
13:00 8.9° 1010.0 hPa 1.6 m/s 0.0 mm 8.9° 1010.0 hPa 1.6 m/s 0.0 mm
19:00 6.2° 1009.2 hPa 0.3 m/s 0.0 mm 6.2° 1009.2 hPa 0.3 m/s 0.0 mm
 06:44     18:04    Daglengte: 11:20 Zondag 04 Maa
01:00 5.8° 1009.9 hPa 1.1 m/s 0.0 mm 5.8° 1009.9 hPa 1.1 m/s 0.1 mm
07:00 3.4° 1007.7 hPa 0.8 m/s 1.6 mm
13:00 8.0° 1007.8 hPa 0.7 m/s 1.3 mm
19:00 5.0° 1006.9 hPa 0.4 m/s 0.7 mm
 06:42     18:05    Daglengte: 11:23 Maandag 05 Maa
01:00 4.0° 1007.5 hPa 0.8 m/s 1.7 mm
07:00 3.8° 1007.4 hPa 0.9 m/s 1.7 mm